Location: Kerentrech
(47.7567°N, 3.3595°W)
Time: 17:33:03
(UTC+00:00)

ADEOS - Pass Details

Date: 17 February 2020
Orbit: 793 x 794 km, 98.9° (Epoch: 31 March)

Event Time Altitude Azimuth Distance (km) Brightness Sun altitude
Rises 04:18:10 0° 15° (NNE) 3,308 7.2 -30.5°
Reaches altitude 10° 04:20:30 10° 17° (NNE) 2,374 6.4 -30.1°
Enters shadow 04:24:59 65° 34° (NE) 877 3.8 -29.4°
